Lid_Strength_Index
8 11 13 12 10 11 12 13 13 12 9 11 11 11 9 8 8 8 8 7 7 6 4 3 3 3 3 2 2 2 2 2 1 2 3 2 2 3 4 4 3 3 4 4
11 13 10 8 9 12 13 14 14 11 9 10 11 12 9 8 8 7 8 8 7 6 5 4 3 4 3 3 2 2 2 2 1 2 2 2 4 5 5 5 5 5 5 5
13 11 8 9 10 13 13 14 14 14 11 10 12 13 12 9 8 7 6 6 6 6 6 5 4 4 4 3 3 2 2 1 1 1 3 5 6 7 7 6 8 7 5 5
11 8 10 11 12 11 15 11 11 12 14 18 12 19 13 10 10 9 7 7 6 6 5 5 4 4 4 3 2 2 1 1 1 2 2 3 2 4 6 7 8 7 7 7
13 11 11 13 12 10 13 10 12 12 14 15 15 17 13 10 11 9 8 7 6 6 5 5 4 3 3 3 3 2 2 1 1 2 2 2 2 3 8 8 8 9 8 8
10 8 9 10 10 10 9 12 12 13 14 20 16 17 16 13 11 9 9 7 6 6 5 4 4 3 3 3 3 2 2 2 1 1 2 3 3 6 8 8 8 9 10 9
12 12 10 9 12 10 11 14 19 20 20 21 15 17 15 11 9 9 8 7 6 6 5 5 5 4 3 3 3 2 2 2 1 1 2 3 3 5 6 7 7 10 10 11
16 18 12 9 11 13 13 14 19 23 22 20 15 19 15 9 8 9 8 7 7 6 5 5 4 4 4 3 3 2 2 2 2 2 2 3 4 5 5 7 7 8 9 10
16 16 12 10 10 10 14 16 12 17 17 19 18 15 11 11 10 9 9 9 8 6 5 5 5 4 3 3 3 2 2 2 2 2 2 3 4 4 6 7 8 8 9 9
13 17 14 11 9 10 12 11 17 16 22 23 20 18 17 14 13 10 11 10 9 8 6 6 5 4 3 3 3 2 2 2 2 2 2 3 4 4 6 7 8 8 9 10
11 13 16 13 15 14 14 15 14 14 17 21 22 18 17 17 16 16 14 11 10 9 8 7 6 5 4 3 3 3 2 2 2 2 2 3 4 5 6 6 7 8 9 10
11 14 17 16 15 13 13 13 13 18 19 17 18 19 16 16 15 15 15 14 13 12 11 10 8 6 6 5 4 3 3 3 3 2 3 4 5 6 7 7 7 9 11 11
10 14 18 17 15 15 16 14 12 13 14 18 19 17 15 16 15 15 15 14 13 13 12 11 10 9 9 8 7 6 5 4 5 5 5 6 6 7 7 8 9 10 11 12
10 14 16 19 16 14 16 15 14 14 17 17 17 15 15 15 16 14 14 14 13 13 12 12 12 11 10 10 8 8 8 7 8 7 7 7 8 8 8 10 10 11 12 12
11 16 15 15 14 14 14 15 15 15 14 17 15 15 14 13 13 15 14 13 14 13 13 12 12 11 11 10 10 10 9 9 9 9 9 9 10 10 10 11 12 13 12 12
11 15 15 18 14 14 15 13 13 13 13 14 13 14 13 12 10 13 14 14 14 14 13 13 13 11 11 11 11 10 10 9 9 9 9 9 10 10 11 12 13 14 13 12
12 14 16 20 16 15 18 16 13 13 12 12 15 12 10 10 11 13 13 14 14 14 14 14 13 13 12 11 11 11 11 11 10 10 11 12 12 13 14 14 15 15 14 14
13 14 16 21 18 21 16 15 13 13 15 14 12 12 14 13 12 13 13 13 13 13 13 13 13 13 13 12 11 11 11 11 11 12 12 13 13 14 15 15 14 15 15 15
10 13 20 22 23 17 16 15 16 15 17 16 16 15 14 13 13 13 13 12 13 13 12 12 12 13 13 12 11 11 13 13 13 13 13 14 14 15 15 15 15 15 15 16
10 11 17 22 23 23 16 15 14 14 19 16 15 15 15 14 15 14 14 13 13 13 13 14 14 14 13 13 13 12 13 14 13 13 13 14 14 14 14 14 15 16 15 16
19 16 17 18 23 18 14 14 14 19 17 16 15 15 15 15 15 14 13 14 14 15 15 15 15 15 15 15 15 14 14 13 14 15 15 15 15 14 14 15 17 16 16 16
20 23 18 21 22 21 13 13 15 13 13 14 14 14 14 14 14 14 14 15 16 16 16 17 17 17 16 17 16 15 14 14 15 15 15 15 15 15 15 15 16 16 15 16
19 16 19 17 16 12 12 13 11 11 11 12 13 12 13 14 14 14 14 15 16 17 17 18 18 18 17 18 18 17 15 15 16 15 15 15 15 15 15 15 16 16 15 16
15 14 17 17 16 14 12 11 11 11 11 11 11 12 12 13 13 13 13 15 16 17 19 19 20 20 20 21 20 19 18 18 17 15 15 15 15 15 15 15 15 15 15 15
16 14 18 16 15 15 13 12 11 11 12 12 12 12 12 12 12 13 14 15 16 17 19 20 22 22 23 23 22 22 21 19 18 19 18 16 15 15 16 16 15 15 16 13
14 15 16 17 14 13 12 12 11 11 11 11 11 12 13 13 12 15 16 18 18 19 20 21 22 22 22 23 23 22 22 20 18 19 19 18 16 16 16 16 16 13 13 12